Waarnemingen

Advertentie
Mijn weer
Bezier-Vias, Frankrijk (7638): temperatuur & dauwpunt: 17.01.2018 05:00:00 - 23.01.2018 05:00:00 (CET)Bezier-Vias, Frankrijk (7638): windsnelheid & windstoten: 17.01.2018 05:00:00 - 23.01.2018 05:00:00 (CET)Bezier-Vias, Frankrijk (7638): windrichting: 17.01.2018 05:00:00 - 23.01.2018 05:00:00 (CET)Bezier-Vias, Frankrijk (7638): luchtdruk: 17.01.2018 05:00:00 - 23.01.2018 05:00:00 (CET)Bezier-Vias, Frankrijk (7638): zicht: 17.01.2018 05:00:00 - 23.01.2018 05:00:00 (CET)Bezier-Vias, Frankrijk (7638): neerslag: 17.01.2018 05:00:00 - 23.01.2018 05:00:00 (CET)
Datum & Tijd tt [°C] td [°C] ff [km/u] ff [kn] fx [km/u] fx [kn] dd ppp [hPa] vv [km] rr [mm]
23.01.2018 05:00:00 10,4 4,1 21 12 34 18 NW 1025,7 60 0,0
23.01.2018 04:00:00 12,1 4,6 22 12 39 21 WNW 1025,6 60 0,0
23.01.2018 03:00:00 11,4 4,4 22 12 36 19 NW 1025,4 60 0,0
23.01.2018 02:00:00 11,7 4,4 13 7 46 25 W 1024,9 60 0,0
23.01.2018 01:00:00 12,6 5,0 22 12 49 26 NW 1024,0 60 0,0
23.01.2018 00:00:00 13,2 5,1 31 17 54 29 WNW 1023,8 60 0,0
22.01.2018 23:00:00 13,8 4,6 36 20 84 45 WNW 1023,7 60 0,0
22.01.2018 22:00:00 14,9 4,3 55 30 80 43 NW 1022,9 60 0,0
22.01.2018 21:00:00 15,2 6,5 37 20 61 33 WNW 1022,9 60 0,0
22.01.2018 20:00:00 15,3 8,5 21 12 52 28 W 1022,7 60 0,0
22.01.2018 19:00:00 14,8 8,9 27 15 49 26 W 1020,6 60 0,0
22.01.2018 18:00:00 14,8 9,6 31 17 50 27 W 1020,1 57 0,0
22.01.2018 17:00:00 16,0 9,4 32 17 69 38 W 1020,3 40 0,0
22.01.2018 16:00:00 16,2 9,4 32 17 77 42 W 1020,3 36 0,0
22.01.2018 15:00:00 16,4 8,4 49 26 81 44 WNW 1019,8 60 0,0
22.01.2018 14:00:00 16,4 8,9 31 17 57 31 W 1020,9 59 0,0
22.01.2018 13:00:00 15,5 7,8 34 18 51 28 W 1021,5 60 0,0
22.01.2018 12:00:00 16,1 7,6 35 19 68 37 W 1021,7 52 0,0
22.01.2018 11:00:00 16,5 7,9 29 15 68 37 WNW 1021,7 60 0,0
22.01.2018 10:00:00 16,2 7,9 42 23 62 33 WNW 1020,7 45 0,0
22.01.2018 09:00:00 14,7 7,5 39 21 56 30 W 1020,5 60 0,0
22.01.2018 08:00:00 14,8 6,6 20 11 53 28 W 1021,0 60 0,0
22.01.2018 07:00:00 15,1 6,9 37 20 72 39 WNW 1020,7 60 0,0
22.01.2018 06:00:00 15,3 7,3 37 20 71 38 WNW 1020,4 60 0,0
22.01.2018 05:00:00 15,1 7,1 50 27 73 40 WNW 1019,5 60 0,0
22.01.2018 04:00:00 14,8 7,8 47 26 79 43 WNW 1019,9 60 0,0
22.01.2018 03:00:00 15,0 8,0 52 28 78 42 WNW 1019,4 60 0,0
22.01.2018 02:00:00 14,7 8,2 41 22 71 39 NW 1019,8 60 0,0
22.01.2018 01:00:00 15,0 8,0 44 24 67 36 WNW 1020,6 60 0,0
22.01.2018 00:00:00 14,5 8,9 27 14 63 34 W 1021,2 60 0,0
21.01.2018 23:00:00 14,8 9,2 41 22 72 39 W 1020,3 60 0,0
21.01.2018 22:00:00 15,1 9,2 46 25 67 36 WNW 1020,3 60 0,0
21.01.2018 21:00:00 15,1 9,9 36 19 53 29 WNW 1020,6 60 0,0
21.01.2018 20:00:00 14,2 11,0 28 15 45 24 W 1020,5 60 0,0
21.01.2018 19:00:00 14,3 11,4 32 17 53 29 WNW 1020,0 60 0,0
21.01.2018 18:00:00 16,1 10,2 34 18 52 28 W 1019,2 60 0,0
21.01.2018 17:00:00 17,0 10,1 37 20 58 32 WNW 1018,9 42 0,0
21.01.2018 16:00:00 18,2 10,1 34 18 64 35 W 1018,8 60 0,0
21.01.2018 15:00:00 18,6 9,6 33 18 55 30 WNW 1018,1 60 0,0
21.01.2018 14:00:00 19,0 9,7 38 20 60 32 WNW 1018,1 58 0,0
21.01.2018 13:00:00 19,5 9,7 42 23 63 34 WNW 1017,7 27 0,0
21.01.2018 12:00:00 19,2 9,7 35 19 53 29 WNW 1018,1 30 0,0
21.01.2018 11:00:00 18,4 9,5 35 19 51 28 NW 1017,5 39 0,0
21.01.2018 10:00:00 17,1 9,5 26 14 46 25 WNW 1016,9 60 0,0
21.01.2018 09:00:00 14,6 10,2 26 14 39 21 W 1016,6 60 0,0
21.01.2018 08:00:00 15,1 9,9 24 13 47 25 W 1016,4 60 0,0
21.01.2018 07:00:00 14,9 10,1 31 17 54 29 W 1015,6 60 0,0
21.01.2018 06:00:00 15,1 10,1 38 20 66 35 W 1014,4 60 0,0
21.01.2018 05:00:00 15,1 9,9 45 24 69 38 W 1013,9 60 0,0
21.01.2018 04:00:00 15,1 9,9 45 24 68 37 W 1013,8 60 0,0
21.01.2018 03:00:00 14,9 10,1 43 23 70 38 W 1013,4 60 0,0
21.01.2018 02:00:00 15,0 9,8 49 26 74 40 W 1012,3 60 0,0
21.01.2018 01:00:00 14,9 9,9 49 27 75 41 WNW 1012,2 60 0,0
21.01.2018 00:00:00 15,0 9,8 41 22 67 36 W 1013,0 60 0,0
20.01.2018 23:00:00 14,3 9,7 35 19 60 32 W 1013,2 60 0,0
20.01.2018 22:00:00 14,6 9,4 36 19 60 32 W 1013,5 60 0,0
20.01.2018 21:00:00 14,5 9,3 40 21 63 34 W 1012,9 60 0,0
20.01.2018 20:00:00 14,3 8,9 38 21 61 33 W 1012,8 60 0,0
20.01.2018 19:00:00 14,2 8,8 31 17 55 30 W 1013,0 60 0,0
20.01.2018 18:00:00 13,0 8,3 23 13 62 33 WZW 1012,7 60 0,0
20.01.2018 17:00:00 12,0 7,9 34 19 65 35 WZW 1012,6 59 0,0
20.01.2018 16:00:00 12,9 7,6 42 23 75 40 W 1012,9 36 0,0
20.01.2018 15:00:00 12,9 6,5 46 25 82 44 W 1013,3 48 0,0
20.01.2018 14:00:00 13,0 5,9 36 19 61 33 W 1014,9 57 0,0
20.01.2018 13:00:00 12,2 4,4 14 7 35 19 ZW 1017,0 60 0,0
20.01.2018 12:00:00 11,3 4,5 17 9 27 14 ZW 1018,2 50 0,0
20.01.2018 11:00:00 11,0 4,9 17 9 29 15 WZW 1019,4 39 0,0
20.01.2018 10:00:00 9,7 4,7 13 7 23 12 WZW 1019,7 42 0,0
20.01.2018 09:00:00 8,4 3,8 8 4 22 12 ZZW 1020,3 60 0,0
20.01.2018 08:00:00 7,9 3,4 14 8 29 16 W 1020,6 60 0,0
20.01.2018 07:00:00 8,4 3,4 18 10 31 17 W 1020,8 60 0,0
20.01.2018 06:00:00 8,9 2,2 13 7 26 14 ZZW 1020,7 60 0,0
20.01.2018 05:00:00 8,5 2,1 16 9 35 19 WNW 1021,2 60 0,0
20.01.2018 04:00:00 9,7 1,6 28 15 39 21 NW 1021,0 60 0,0
20.01.2018 03:00:00 9,3 2,8 25 14 30 16 NW 1021,2 60 0,0
20.01.2018 02:00:00 10,6 3,4 16 9 35 19 WNW 1021,5 60 0,0
20.01.2018 01:00:00 10,5 3,5 10 5 41 22 N 1021,6 60 0,0
20.01.2018 00:00:00 11,2 4,4 31 17 48 26 NW 1020,6 60 0,0
19.01.2018 23:00:00 10,3 4,2 17 9 33 18 WNW 1020,3 60 0,0
19.01.2018 22:00:00 10,8 5,1 16 9 36 19 WZW 1020,1 60 0,0
19.01.2018 21:00:00 10,8 4,5 9 5 30 16 ZW 1019,9 60 0,0
19.01.2018 20:00:00 10,6 4,9 9 5 20 11 WZW 1020,0 60 0,0
19.01.2018 19:00:00 10,0 4,6 9 5 21 12 ZW 1019,3 60 0,0
19.01.2018 18:00:00 11,6 4,6 19 10 31 17 WZW 1018,3 60 0,0
19.01.2018 17:00:00 12,9 3,3 21 12 51 28 NW 1017,8 60 0,0
19.01.2018 16:00:00 13,8 4,1 23 13 53 28 NW 1017,4 59 0,0
19.01.2018 15:00:00 15,0 4,1 26 14 54 29 NW 1017,0 27 0,0
19.01.2018 14:00:00 15,1 3,9 38 20 60 33 NW 1016,8 32 0,0
19.01.2018 13:00:00 15,3 4,3 32 18 59 32 NW 1017,6 41 0,0
19.01.2018 12:00:00 14,9 4,3 34 18 55 30 WNW 1018,0 53 0,0
19.01.2018 11:00:00 13,8 4,6 15 8 31 17 NW 1018,2 10 0,0
19.01.2018 10:00:00 12,0 7,9 22 12 32 17 NW 1017,8 10 0,0
19.01.2018 09:00:00 9,9 7,7 15 8 23 12 W 1017,4 60 0,0
19.01.2018 08:00:00 9,8 6,9 16 9 36 20 W 1017,3 10 0,0
19.01.2018 07:00:00 10,6 7,7 21 11 33 18 WNW 1016,8 10 0,0
19.01.2018 06:00:00 9,9 6,6 18 10 37 20 W 1016,7 10 0,0
19.01.2018 05:00:00 9,6 6,9 16 9 29 16 W 1016,7 10 0,0
19.01.2018 04:00:00 9,3 6,4 11 6 22 12 Z 1017,5 10 0,0
19.01.2018 03:00:00 9,4 6,5 13 7 24 13 ZW 1018,1 10 0,0
19.01.2018 02:00:00 9,5 6,4 21 11 36 19 WZW 1018,5 10 0,0
19.01.2018 01:00:00 10,3 6,4 24 13 36 19 W 1018,5 10 0,0
19.01.2018 00:00:00 10,1 6,2 18 10 35 19 W 1019,1 10 0,0
18.01.2018 23:00:00 10,0 6,0 22 12 32 18 W 1019,0 10 0,0
18.01.2018 22:00:00 10,3 6,1 18 10 27 15 W 1019,4 10 0,0
18.01.2018 21:00:00 8,9 5,8 15 8 18 10 WZW 1019,6 10 0,0
18.01.2018 20:00:00 9,0 5,4 9 5 25 14 W 1019,8 10 0,0
18.01.2018 19:00:00 10,6 5,8 16 9 26 14 W 1020,0 10 0,0
18.01.2018 18:00:00 11,5 5,8 16 9 30 16 W 1020,0 10 0,0
18.01.2018 17:00:00 12,3 5,7 23 12 32 18 W 1020,1 50 0,0
18.01.2018 16:00:00 13,6 5,7 23 13 37 20 WNW 1020,0 29 0,0
18.01.2018 15:00:00 13,9 5,8 24 13 42 23 W 1020,4 10 0,0
18.01.2018 14:00:00 13,9 5,8 26 14 48 26 W 1021,1 43 0,0
18.01.2018 13:00:00 13,3 5,2 29 16 46 25 W 1022,2 55 0,0
18.01.2018 12:00:00 12,4 5,1 25 14 38 21 W 1023,1 60 0,0
18.01.2018 11:00:00 11,7 4,7 22 12 35 19 WZW 1023,9 10 0,0
18.01.2018 10:00:00 9,1 3,9 18 10 32 17 WZW 1024,0 60 0,0
18.01.2018 09:00:00 6,9 3,9 13 7 23 12 WZW 1023,7 10 0,0
18.01.2018 08:00:00 5,8 3,3 5 3 26 14 ZZW 1023,2 10 0,0
18.01.2018 07:00:00 6,7 3,7 18 10 28 15 W 1023,1 10 0,0
18.01.2018 06:00:00 5,4 3,2 9 5 21 12 W 1023,1 10 0,0
18.01.2018 05:00:00 5,8 3,6 10 5 23 12 ZW 1023,6 38 0,0
18.01.2018 04:00:00 7,0 3,6 9 5 22 12 ZZW 1024,4 10 0,0
18.01.2018 03:00:00 6,7 4,0 13 7 31 17 W 1024,9 60 0,0
18.01.2018 02:00:00 8,0 4,0 15 8 28 15 WNW 1025,4 10 0,0
18.01.2018 01:00:00 9,2 3,8 13 7 25 13 W 1025,8 10 0,0
18.01.2018 00:00:00 8,4 4,4 13 7 34 18 ZZW 1025,6 10 0,0
17.01.2018 23:00:00 9,3 3,5 21 11 32 18 WZW 1025,7 60 0,0
17.01.2018 22:00:00 9,1 2,0 8 4 40 22 WZW 1025,7 10 0,0
17.01.2018 21:00:00 9,7 2,1 28 15 41 22 WNW 1025,1 60 0,0
17.01.2018 20:00:00 9,8 2,6 18 10 41 22 WNW 1024,7 10 0,0
17.01.2018 19:00:00 10,5 2,1 16 9 37 20 WNW 1024,0 10 0,0
17.01.2018 18:00:00 10,1 1,7 11 6 43 23 WZW 1022,8 10 0,0
17.01.2018 17:00:00 11,4 1,1 37 20 61 33 NW 1022,3 10 0,0
17.01.2018 16:00:00 11,9 2,3 26 14 57 31 WNW 1021,9 10 0,0
17.01.2018 15:00:00 12,1 1,4 31 17 66 36 NW 1020,9 60 0,0
17.01.2018 14:00:00 12,7 0,7 44 24 90 49 NW 1020,8 10 0,0
17.01.2018 13:00:00 12,6 1,3 48 26 87 47 NW 1020,5 10 0,0
17.01.2018 12:00:00 11,8 2,3 34 19 80 43 NNW 1020,5 47 0,0
17.01.2018 11:00:00 12,4 1,1 46 25 78 42 NW 1020,1 31 0,0
17.01.2018 10:00:00 11,9 2,3 41 22 64 35 NW 1018,8 37 0,0
17.01.2018 09:00:00 10,9 3,2 30 16 78 42 WNW 1017,6 27 0,0
17.01.2018 08:00:00 11,3 2,1 44 24 82 44 NW 1016,9 10 0,0
17.01.2018 07:00:00 11,5 2,8 54 29 96 52 WNW 1015,2 10 0,0
17.01.2018 06:00:00 12,3 3,5 65 35 100 54 WNW 1013,5 10 0,0
17.01.2018 05:00:00 12,9 4,1 54 29 94 51 WNW 1012,9 10 0,0

tt = temperatuur
td = dauwpunt
ff = windsnelheid
fx = windstoten
dd = windrichting
ppp = luchtdruk
vv = zicht
rr = neerslag

Weerstations in de omgeving